• In Czech Republic
  • List of Countries
  • For 7 days
  • Water Temperature
  • Satellite Maps
  • Weather Map
  • Weather Widgets
  • user-avatar
    Login

    Hourly Weather Hirlau

    Today, 19 June, Tuesday

    Time Temperature Precipitation Wind Pressure Humidity
    00:00 +19°C° 0 mm 2 mps 744 mmHg 86%
    01:00 +19°C° 0 mm 2 mps 744 mmHg 87%
    02:00 +19°C° 0 mm 1 mps 744 mmHg 88%
    03:00 +18°C° 0 mm 2 mps 744 mmHg 89%
    04:00 +18°C° 0 mm 2 mps 744 mmHg 90%
    05:00 +18°C° 0 mm 2 mps 744 mmHg 90%
    06:00 +19°C° 0 mm 2 mps 745 mmHg 85%
    07:00 +21°C° 0 mm 2 mps 745 mmHg 80%
    08:00 +24°C° 0 mm 3 mps 745 mmHg 75%
    09:00 +25°C° 0 mm 2 mps 745 mmHg 69%
    10:00 +27°C° 0 mm 2 mps 745 mmHg 62%
    11:00 +28°C° 0 mm 2 mps 745 mmHg 55%
    12:00 +29°C° 0 mm 2 mps 745 mmHg 53%
    13:00 +29°C° 0 mm 2 mps 745 mmHg 51%
    14:00 +30°C° 0 mm 2 mps 745 mmHg 48%
    15:00 +30°C° 0 mm 2 mps 745 mmHg 50%
    16:00 +30°C° 0 mm 2 mps 745 mmHg 51%
    17:00 +30°C° 0 mm 2 mps 745 mmHg 52%
    18:00 +28°C° 0 mm 2 mps 745 mmHg 58%
    19:00 +26°C° 0 mm 2 mps 745 mmHg 65%
    20:00 +25°C° 0 mm 1 mps 745 mmHg 72%
    21:00 +24°C° 0 mm 1 mps 746 mmHg 75%
    22:00 +23°C° 0 mm 1 mps 746 mmHg 78%
    23:00 +22°C° 0 mm 1 mps 746 mmHg 81%

    Tomorrow, 20 June, Wednesday

    Time Temperature Precipitation Wind Pressure Humidity
    00:00 +22°C° 0 mm 1 mps 747 mmHg 83%
    01:00 +21°C° 0 mm 2 mps 747 mmHg 85%
    02:00 +20°C° 0 mm 2 mps 747 mmHg 87%
    03:00 +20°C° 0.2 mm 2 mps 747 mmHg 89%
    04:00 +20°C° 0.2 mm 2 mps 747 mmHg 90%
    05:00 +19°C° 0.2 mm 2 mps 747 mmHg 92%
    06:00 +21°C° 0.2 mm 3 mps 747 mmHg 88%
    07:00 +22°C° 0.2 mm 3 mps 748 mmHg 83%
    08:00 +25°C° 0.2 mm 4 mps 748 mmHg 79%
    09:00 +26°C° 0.3 mm 4 mps 748 mmHg 74%
    10:00 +27°C° 0.3 mm 4 mps 748 mmHg 68%
    11:00 +29°C° 0.3 mm 4 mps 748 mmHg 63%
    12:00 +29°C° 0.1 mm 4 mps 748 mmHg 60%
    13:00 +30°C° 0.1 mm 4 mps 747 mmHg 57%
    14:00 +30°C° 0.1 mm 4 mps 747 mmHg 55%
    15:00 +30°C° 0 mm 3 mps 747 mmHg 56%
    16:00 +30°C° 0 mm 3 mps 747 mmHg 57%
    17:00 +30°C° 0 mm 3 mps 747 mmHg 58%
    18:00 +28°C° 0.1 mm 3 mps 747 mmHg 64%
    19:00 +26°C° 0.1 mm 2 mps 747 mmHg 70%
    20:00 +25°C° 0.1 mm 2 mps 747 mmHg 76%
    21:00 +24°C° 0 mm 1 mps 747 mmHg 78%
    22:00 +23°C° 0 mm 1 mps 747 mmHg 80%
    23:00 +22°C° 0 mm 1 mps 747 mmHg 82%

    Day after tomorrow, 21 June, Thursday

    Time Temperature Precipitation Wind Pressure Humidity
    00:00 +22°C° 0 mm 1 mps 747 mmHg 84%
    01:00 +21°C° 0 mm 1 mps 747 mmHg 85%
    02:00 +21°C° 0 mm 1 mps 747 mmHg 87%
    03:00 +21°C° 0 mm 1 mps 747 mmHg 88%
    04:00 +21°C° 0 mm 1 mps 747 mmHg 88%
    05:00 +21°C° 0 mm 1 mps 746 mmHg 89%
    06:00 +22°C° 0 mm 1 mps 746 mmHg 83%
    07:00 +24°C° 0 mm 1 mps 746 mmHg 78%
    08:00 +26°C° 0 mm 1 mps 746 mmHg 72%
    09:00 +27°C° 0.2 mm 1 mps 746 mmHg 68%
    10:00 +28°C° 0.2 mm 2 mps 745 mmHg 63%
    11:00 +29°C° 0.2 mm 2 mps 745 mmHg 59%
    12:00 +29°C° 0.2 mm 2 mps 744 mmHg 57%
    13:00 +30°C° 0.2 mm 2 mps 744 mmHg 55%
    14:00 +30°C° 0.2 mm 3 mps 743 mmHg 53%
    15:00 +30°C° 0.3 mm 3 mps 743 mmHg 55%
    16:00 +30°C° 0.3 mm 3 mps 743 mmHg 58%
    17:00 +29°C° 0.3 mm 3 mps 742 mmHg 60%
    18:00 +28°C° 0.2 mm 3 mps 742 mmHg 65%
    19:00 +26°C° 0.2 mm 2 mps 742 mmHg 71%
    20:00 +25°C° 0.2 mm 2 mps 742 mmHg 76%
    21:00 +24°C° 0 mm 2 mps 741 mmHg 78%
    22:00 +23°C° 0 mm 2 mps 741 mmHg 79%
    23:00 +21°C° 0 mm 2 mps 741 mmHg 80%

    22 June, Friday

    Time Temperature Precipitation Wind Pressure Humidity
    00:00 +21°C° 0 mm 2 mps 741 mmHg 81%
    01:00 +21°C° 0 mm 2 mps 741 mmHg 81%
    02:00 +20°C° 0 mm 2 mps 740 mmHg 82%
    03:00 +20°C° 0 mm 2 mps 740 mmHg 83%
    04:00 +20°C° 0 mm 2 mps 740 mmHg 83%
    05:00 +19°C° 0 mm 2 mps 739 mmHg 84%
    06:00 +21°C° 0 mm 2 mps 739 mmHg 78%
    07:00 +24°C° 0 mm 2 mps 739 mmHg 72%
    08:00 +26°C° 0 mm 2 mps 739 mmHg 65%
    09:00 +27°C° 1.2 mm 2 mps 739 mmHg 64%
    10:00 +28°C° 1.2 mm 3 mps 739 mmHg 63%
    11:00 +28°C° 1.2 mm 4 mps 738 mmHg 63%
    12:00 +27°C° 1.9 mm 5 mps 738 mmHg 68%
    13:00 +24°C° 1.9 mm 6 mps 738 mmHg 74%
    14:00 +23°C° 1.9 mm 6 mps 738 mmHg 79%
    15:00 +22°C° 0.5 mm 7 mps 738 mmHg 81%
    16:00 +20°C° 0.5 mm 7 mps 738 mmHg 82%
    17:00 +18°C° 0.5 mm 7 mps 739 mmHg 84%
    18:00 +17°C° 0.5 mm 7 mps 739 mmHg 84%
    19:00 +15°C° 0.5 mm 7 mps 739 mmHg 85%
    20:00 +12°C° 0.5 mm 7 mps 740 mmHg 85%
    21:00 +13°C° 0.1 mm 6 mps 740 mmHg 85%
    22:00 +13°C° 0.1 mm 6 mps 741 mmHg 85%
    23:00 +12°C° 0.1 mm 5 mps 741 mmHg 85%

    23 June, Saturday

    Time Temperature Precipitation Wind Pressure Humidity
    00:00 +12°C° 0.1 mm 5 mps 741 mmHg 85%
    01:00 +12°C° 0.1 mm 5 mps 742 mmHg 86%
    02:00 +12°C° 0.1 mm 5 mps 742 mmHg 87%
    03:00 +12°C° 0 mm 5 mps 742 mmHg 85%
    04:00 +12°C° 0 mm 5 mps 743 mmHg 84%
    05:00 +11°C° 0 mm 4 mps 743 mmHg 83%
    06:00 +13°C° 0 mm 5 mps 743 mmHg 76%
    07:00 +14°C° 0 mm 5 mps 743 mmHg 70%
    08:00 +15°C° 0 mm 6 mps 744 mmHg 64%
    09:00 +16°C° 0 mm 6 mps 744 mmHg 60%
    10:00 +17°C° 0 mm 5 mps 744 mmHg 55%
    11:00 +19°C° 0 mm 5 mps 744 mmHg 51%
    12:00 +20°C° 0 mm 5 mps 744 mmHg 51%
    13:00 +20°C° 0 mm 5 mps 744 mmHg 50%
    14:00 +21°C° 0 mm 5 mps 743 mmHg 50%
    15:00 +21°C° 0 mm 4 mps 743 mmHg 50%
    16:00 +21°C° 0 mm 4 mps 744 mmHg 51%
    17:00 +21°C° 0 mm 3 mps 744 mmHg 52%
    18:00 +19°C° 0 mm 2 mps 744 mmHg 57%
    19:00 +18°C° 0 mm 2 mps 744 mmHg 63%
    20:00 +18°C° 0 mm 1 mps 744 mmHg 68%
    21:00 +16°C° 0 mm 1 mps 745 mmHg 71%
    22:00 +15°C° 0 mm 1 mps 745 mmHg 74%
    23:00 +14°C° 0 mm 1 mps 745 mmHg 76%

    24 June, Sunday

    Time Temperature Precipitation Wind Pressure Humidity
    00:00 +13°C° 0 mm 1 mps 746 mmHg 78%
    01:00 +13°C° 0 mm 1 mps 746 mmHg 80%
    02:00 +12°C° 0 mm 1 mps 746 mmHg 83%
    03:00 +12°C° 0 mm 1 mps 746 mmHg 83%
    04:00 +12°C° 0 mm 1 mps 746 mmHg 83%
    05:00 +12°C° 0 mm 1 mps 746 mmHg 84%
    06:00 +14°C° 0 mm 1 mps 746 mmHg 77%
    07:00 +16°C° 0 mm 1 mps 747 mmHg 71%
    08:00 +19°C° 0 mm 1 mps 747 mmHg 65%
    09:00 +20°C° 0 mm 1 mps 747 mmHg 61%
    10:00 +22°C° 0 mm 1 mps 747 mmHg 57%
    11:00 +23°C° 0 mm 1 mps 747 mmHg 53%
    12:00 +24°C° 0.1 mm 1 mps 746 mmHg 51%
    13:00 +24°C° 0.1 mm 1 mps 746 mmHg 48%
    14:00 +25°C° 0.1 mm 1 mps 746 mmHg 46%
    15:00 +25°C° 0.1 mm 2 mps 746 mmHg 47%
    16:00 +24°C° 0.1 mm 2 mps 746 mmHg 48%
    17:00 +24°C° 0.1 mm 2 mps 745 mmHg 49%
    18:00 +23°C° 0.1 mm 2 mps 746 mmHg 55%
    19:00 +20°C° 0.1 mm 2 mps 746 mmHg 60%
    20:00 +19°C° 0.1 mm 2 mps 746 mmHg 66%
    21:00 +19°C° 0.1 mm 1 mps 746 mmHg 68%
    22:00 +18°C° 0.1 mm 1 mps 746 mmHg 71%
    23:00 +16°C° 0.1 mm 1 mps 746 mmHg 73%
    Show more